Albion, NE

3:52 PM CST on December 12, 2019 (GMT -0600)
Albion Municipal

Weather History for KBVN - September, 2019

Change the Weather History Date:

Tuesday, September 17, 2019

  Actual Average (KOFK) Record (KOFK)
Temperature  
Mean Temperature 81 °F -  
Max Temperature 90 °F 74 °F 102 °F (1895)
Min Temperature 72 °F 51 °F 32 °F (1916)
Cooling Degree Days 16    
Growing Degree Days 31 (Base 50)    
Moisture  
Dew Point 68 °F    
Average Humidity 67    
Maximum Humidity 89    
Minimum Humidity 46    
Precipitation  
Precipitation 0.00 in - - ()
Sea Level Pressure  
Sea Level Pressure 29.87 in    
Wind  
Wind Speed 15 mph (SSE)    
Max Wind Speed 24 mph    
Max Gust Speed 34 mph    
Visibility 10 miles    
Events      
Averages and records for this station are not official NWS values.
T = Trace of Precipitation, MM = Missing Value Source: NWS Daily Summary

Daily Weather History Graph

Daily Weather History Graph

Search for Another Location

Airport or City:

Astronomy

Sep. 17, 2019 Rise Set
Actual Time 7:14 AM CDT 7:38 PM CDT
Civil Twilight 6:46 AM CDT 8:06 PM CDT
Nautical Twilight 6:13 AM CDT 8:39 PM CDT
Astronomical Twilight 5:39 AM CDT 9:12 PM CDT
Moon 9:39 PM CDT (9/17) 10:22 AM CDT (9/17)
Length of Visible Light 13h 19m
Length of Day
12h 24m
Waning Gibbous, 89% of the Moon is Illuminated
Sep 17
Waning Gibbous
Sep 21
Last Quarter
Sep 28
New
Oct 5
First Quarter
Oct 13
Full

Hourly Weather History & Observations

Time (CDT) Temp. Heat Index Dew Point Humidity Pressure Visibility Wind Dir Wind Speed Gust Speed Precip Events Conditions
12:15 AM 77.0 °F - 67.5 °F 72% 29.92 in 10.0 mi SSE 13.8 mph - N/A   Clear
12:35 AM 76.6 °F - 67.5 °F 73% 29.92 in 10.0 mi South 16.1 mph 19.6 mph N/A   Clear
12:55 AM 76.6 °F - 67.5 °F 73% 29.92 in 10.0 mi South 13.8 mph - N/A   Scattered Clouds
1:15 AM 76.3 °F - 67.6 °F 74% 29.92 in 10.0 mi SSE 13.8 mph 19.6 mph N/A   Mostly Cloudy
1:35 AM 76.1 °F - 68.0 °F 76% 29.92 in 10.0 mi SSE 12.7 mph - N/A   Scattered Clouds
1:50 AM 76.1 °F - 68.0 °F 76% 29.92 in 10.0 mi SSE 12.7 mph 18.4 mph N/A   Clear
2:15 AM 75.2 °F - 68.0 °F 78% 29.92 in 10.0 mi South 13.8 mph - N/A   Clear
2:35 AM 75.2 °F - 68.0 °F 78% 29.91 in 10.0 mi South 12.7 mph - N/A   Clear
2:55 AM 75.7 °F - 68.0 °F 77% 29.91 in 10.0 mi South 13.8 mph - N/A   Clear
3:15 AM 75.6 °F - 68.2 °F 78% 29.91 in 10.0 mi South 13.8 mph 21.9 mph N/A   Clear
3:35 AM 75.2 °F - 68.2 °F 79% 29.91 in 10.0 mi South 11.5 mph - N/A   Clear
3:55 AM 74.3 °F - 68.4 °F 82% 29.90 in 10.0 mi South 11.5 mph 17.3 mph N/A   Clear
4:15 AM 73.8 °F - 68.4 °F 83% 29.91 in 10.0 mi SSE 12.7 mph 18.4 mph N/A   Clear
4:35 AM 73.8 °F - 68.5 °F 84% 29.91 in 10.0 mi South 13.8 mph 18.4 mph N/A   Clear
4:55 AM 73.4 °F - 68.5 °F 85% 29.90 in 10.0 mi South 11.5 mph 17.3 mph N/A   Clear
5:15 AM 73.6 °F - 68.4 °F 84% 29.90 in 10.0 mi South 12.7 mph 17.3 mph N/A   Clear
5:35 AM 73.2 °F - 68.5 °F 85% 29.91 in 10.0 mi SSE 10.4 mph 17.3 mph N/A   Clear
5:55 AM 73.0 °F - 68.5 °F 86% 29.91 in 10.0 mi South 10.4 mph - N/A   Clear
6:15 AM 72.7 °F - 68.5 °F 87% 29.91 in 10.0 mi South 12.7 mph 16.1 mph N/A   Clear
6:35 AM 72.5 °F - 68.7 °F 88% 29.91 in 10.0 mi SSE 10.4 mph - N/A   Clear
6:55 AM 72.3 °F - 68.9 °F 89% 29.92 in 10.0 mi South 11.5 mph - N/A   Clear
7:15 AM 72.3 °F - 68.9 °F 89% 29.92 in 10.0 mi South 13.8 mph - N/A   Clear
7:35 AM 72.1 °F - 68.9 °F 89% 29.92 in 10.0 mi South 13.8 mph 19.6 mph N/A   Clear
7:55 AM 72.1 °F - 68.9 °F 89% 29.92 in 10.0 mi SSE 10.4 mph 17.3 mph N/A   Clear
8:35 AM 73.6 °F - 69.1 °F 86% 29.92 in 10.0 mi SSE 13.8 mph 17.3 mph N/A   Clear
8:55 AM 74.7 °F - 68.9 °F 82% 29.92 in 10.0 mi South 13.8 mph 20.7 mph N/A   Clear
9:15 AM 76.3 °F - 68.9 °F 78% 29.91 in 10.0 mi South 19.6 mph 26.5 mph N/A   Clear
9:35 AM 77.4 °F - 68.5 °F 74% 29.91 in 10.0 mi South 20.7 mph 26.5 mph N/A   Clear
9:55 AM 78.8 °F - 68.5 °F 71% 29.91 in 10.0 mi South 18.4 mph 25.3 mph N/A   Clear
10:10 AM 80.1 °F 82.8 °F 68.5 °F 68% 29.91 in 10.0 mi South 16.1 mph 26.5 mph N/A   Clear
10:35 AM 81.5 °F 84.6 °F 68.7 °F 65% 29.91 in 10.0 mi South 18.4 mph 27.6 mph N/A   Clear
10:55 AM 82.6 °F 85.7 °F 68.4 °F 62% 29.90 in 10.0 mi South 20.7 mph 27.6 mph N/A   Clear
11:15 AM 83.3 °F 86.4 °F 68.2 °F 60% 29.90 in 10.0 mi South 20.7 mph 28.8 mph N/A   Clear
11:35 AM 84.2 °F 87.3 °F 68.0 °F 58% 29.90 in 10.0 mi South 20.7 mph 28.8 mph N/A   Clear
11:55 AM 85.1 °F 88.2 °F 68.0 °F 56% 29.89 in 10.0 mi South 19.6 mph 31.1 mph N/A   Clear
12:15 PM 86.5 °F 90.0 °F 68.4 °F 54% 29.89 in 10.0 mi South 18.4 mph 26.5 mph N/A   Clear
12:55 PM 88.2 °F 90.9 °F 66.9 °F 49% 29.88 in 10.0 mi South 23.0 mph 29.9 mph N/A   Clear
1:15 PM 88.7 °F 92.2 °F 67.8 °F 50% 29.87 in 10.0 mi South 21.9 mph 26.5 mph N/A   Clear
1:35 PM 88.5 °F 91.6 °F 67.1 °F 49% 29.86 in 10.0 mi South 20.7 mph 27.6 mph N/A   Clear
1:50 PM 88.0 °F 90.7 °F 66.6 °F 49% 29.86 in 10.0 mi South 19.6 mph 32.2 mph N/A   Clear
2:10 PM 89.6 °F 93.4 °F 68.2 °F 49% 29.85 in 10.0 mi South 18.4 mph 28.8 mph N/A   Clear
2:35 PM 89.4 °F 91.9 °F 66.4 °F 46% 29.84 in 10.0 mi South 23.0 mph 34.5 mph N/A   Clear
2:55 PM 89.6 °F 92.6 °F 66.9 °F 47% 29.84 in 10.0 mi South 21.9 mph 29.9 mph N/A   Clear
3:15 PM 90.0 °F 92.8 °F 66.6 °F 46% 29.83 in 10.0 mi South 18.4 mph 31.1 mph N/A   Clear
3:35 PM 89.8 °F 92.5 °F 66.6 °F 46% 29.83 in 10.0 mi SSE 23.0 mph 32.2 mph N/A   Clear
3:55 PM 90.0 °F 92.8 °F 66.9 °F 46% 29.83 in 10.0 mi South 23.0 mph 32.2 mph N/A   Scattered Clouds
4:15 PM 89.1 °F 91.7 °F 66.2 °F 47% 29.82 in 10.0 mi South 24.2 mph 32.2 mph N/A   Clear
4:35 PM 89.4 °F 91.9 °F 66.2 °F 46% 29.82 in 10.0 mi South 23.0 mph 29.9 mph N/A   Scattered Clouds
4:55 PM 89.1 °F 91.7 °F 66.4 °F 47% 29.81 in 10.0 mi South 18.4 mph 28.8 mph N/A   Scattered Clouds
5:15 PM 89.1 °F 92.1 °F 66.7 °F 48% 29.81 in 10.0 mi South 21.9 mph 32.2 mph N/A   Scattered Clouds
5:35 PM 88.0 °F 90.3 °F 66.2 °F 48% 29.81 in 10.0 mi South 19.6 mph 28.8 mph N/A   Scattered Clouds
5:55 PM 87.3 °F 89.8 °F 66.6 °F 50% 29.81 in 10.0 mi South 23.0 mph 29.9 mph N/A   Clear
6:15 PM 86.7 °F 89.3 °F 66.7 °F 51% 29.81 in 10.0 mi South 18.4 mph 23.0 mph N/A   Scattered Clouds
6:35 PM 85.6 °F 88.2 °F 66.9 °F 53% 29.81 in 10.0 mi SSE 16.1 mph 23.0 mph N/A   Scattered Clouds
6:55 PM 84.9 °F 87.4 °F 66.6 °F 54% 29.81 in 10.0 mi SSE 16.1 mph - N/A   Mostly Cloudy
7:15 PM 83.7 °F 86.0 °F 66.2 °F 56% 29.81 in 10.0 mi SSE 18.4 mph 24.2 mph N/A   Mostly Cloudy
7:35 PM 82.9 °F 85.0 °F 66.0 °F 56% 29.81 in 10.0 mi SSE 13.8 mph 24.2 mph N/A   Scattered Clouds
7:55 PM 81.9 °F 84.1 °F 66.2 °F 59% 29.81 in 10.0 mi SSE 12.7 mph - N/A   Clear
8:15 PM 81.0 °F 83.2 °F 66.4 °F 61% 29.81 in 10.0 mi SE 11.5 mph 16.1 mph N/A   Clear
8:35 PM 80.2 °F 82.5 °F 66.6 °F 63% 29.82 in 10.0 mi SE 10.4 mph - N/A   Clear
8:55 PM 78.8 °F - 67.1 °F 67% 29.82 in 10.0 mi SSE 11.5 mph 17.3 mph N/A   Clear
9:15 PM 78.6 °F - 66.7 °F 67% 29.82 in 10.0 mi SSE 10.4 mph 17.3 mph N/A   Clear
9:35 PM 78.3 °F - 66.7 °F 68% 29.82 in 10.0 mi SSE 12.7 mph 17.3 mph N/A   Clear
9:55 PM 78.1 °F - 66.6 °F 68% 29.82 in 10.0 mi SSE 10.4 mph - N/A   Clear
10:15 PM 77.9 °F - 66.6 °F 68% 29.83 in 10.0 mi SSE 15.0 mph - N/A   Clear
10:35 PM 77.9 °F - 66.6 °F 68% 29.82 in 10.0 mi SSE 13.8 mph - N/A   Clear
10:55 PM 77.5 °F - 66.2 °F 68% 29.83 in 10.0 mi SSE 12.7 mph - N/A   Clear
11:15 PM 77.4 °F - 66.2 °F 68% 29.83 in 10.0 mi SSE 10.4 mph - N/A   Clear
11:35 PM 76.6 °F - 66.2 °F 70% 29.83 in 10.0 mi SSE 12.7 mph - N/A   Clear
11:55 PM 76.8 °F - 66.2 °F 70% 29.84 in 10.0 mi SSE 10.4 mph - N/A   Clear